Location: Newark
(41.6500°N, 71.4833°W)
Time: 03:23:01
(UTC+00:00)

A-11 Canister half - Pass Details

Date: 22 January 2020
Orbit: 1517 x 1683 km, 47.2° (Epoch: 16 February)

Event Time Altitude Azimuth Distance (km) Brightness Sun altitude
Rises 09:56:35 0° 292° (WNW) 4,667 - -24.1°
Reaches altitude 10° 09:59:37 10° 294° (WNW) 3,681 - -23.6°
Exits shadow 10:04:02 33° 298° (WNW) 2,342 9.4 -22.8°
Maximum altitude 10:08:55 82° 22° (NNE) 1,541 8.9 -21.8°
Drops below altitude 10° 10:18:21 10° 111° (ESE) 3,729 12.2 -20.1°
Sets 10:21:26 0° 113° (ESE) 4,730 13.0 -19.5°
